Regional Weather Roundup
Issued by NWS

Home | Current Version | Previous Version | Graphics & Text | Print | Product List | Glossary On
Versions: 1 2 3 4 5 6 7 8 9 10 11 12 13 14 15 16 17 18 19 20 21 22 23 24 25 26 27 28 29 30 31 32 33 34 35 36 37 38 39 40 41 42 43 44 45 46 47 48 49 50
000
ASUS43 KDTX 011510
RWRMI
MICHIGAN HOURLY REGIONAL WEATHER ROUNDUP
NATIONAL WEATHER SERVICE DETROIT/PONTIAC MI
1100 AM EDT MON SEP 01 2014

NOTE: "FAIR" INDICATES FEW OR NO CLOUDS BELOW 12,000 FEET WITH NO
SIGNIFICANT WEATHER AND/OR OBSTRUCTION TO VISIBILITY.

MIZ047>049-052>055-059>063-066>070-074>076-081>083-011600-
SOUTHEAST LOWER MICHIGAN

CITY           SKY/WX    TMP DP  RH WIND       PRES   REMARKS
ADRIAN         CLOUDY    72  71  97 S10       29.91F FOG
ALMA           CLOUDY    74  72  95 S9        29.81F
ANN ARBOR      CLOUDY    73  70  88 S9        29.89F
BAD AXE        SUNNY     78  73  83 S13       29.85F
DETROIT CITY   PTSUNNY   80  70  71 S13       29.89F
DETROIT        LGT RAIN  75  71  87 S9        29.89F
FLINT          PTSUNNY   79  69  71 S15G21    29.85F
GROSSE ILE     CLOUDY    75  72  88 S16       29.89F
HILLSDALE      CLOUDY    74  74  99 S9        29.89F FOG
HOWELL         CLOUDY    73  70  92 S8        29.86F

CITY           SKY/WX    TMP DP  RH WIND       PRES   REMARKS
JACKSON        CLOUDY    74  69  85 S12       29.87F
LAMBERTVILLE   CLOUDY    73  68  83 S10       29.92S
LANSING        CLOUDY    75  70  84 S14       29.84S
LAPEER         NOT AVBL
MASON          CLOUDY    73  70  89 S10G17    29.86S
MONROE         CLOUDY    75  70  83 S10       29.89S
MT. CLEMENS    CLOUDY    79  70  73 S12       29.88F
PONTIAC        CLOUDY    75  68  78 S13       29.88F
PORT HOPE        N/A     79  69  71 S8        29.82F
PORT HURON     CLOUDY    73  73 100 S9        29.89F
TRI CITIES     CLOUDY    75  70  84 S10       29.83F
YPSILANTI      CLOUDY    78  71  79 S10       29.90F
$$
MIZ043>046-050>051-056>058-064>065-071>073-077>080-011600-
SOUTHWEST LOWER MICHIGAN

CITY           SKY/WX    TMP DP  RH WIND       PRES   REMARKS
BATTLE CREEK   CLOUDY    76  71  85 S13       29.83F
BENTON HARBOR  CLOUDY    74  70  87 S15G23    29.77F
BIG RAPIDS     CLOUDY    75  72  89 S9G18     29.76F
COLDWATER      CLOUDY    76  72  86 S8        29.85F
HOLLAND        CLOUDY    77  72  84 S18G24    29.75F
GRAND RAPIDS   CLOUDY    75  74  96 S17       29.79F FOG
KALAMAZOO      CLOUDY    77  71  82 S9        29.82F
MARSHALL       CLOUDY    75  71  87 S10G18    29.84F
MUSKEGON       CLOUDY    78  70  76 S18       29.72F
$$
MIZ016>042-011600-
NORTHERN LOWER MICHIGAN

CITY           SKY/WX    TMP DP  RH WIND       PRES   REMARKS
ALPENA         SUNNY     77  69  76 S8        29.78F
BEAVER ISLAND  MOSUNNY   75  69  82 S7        29.69F
BELLAIRE       MOSUNNY   77  67  72 S13G18    29.71F
CADILLAC       PTSUNNY   74  69  85 S12G17    29.75F
CHARLEVOIX     SUNNY     80  71  75 S12G18    29.72F
FRANKFORT      CLOUDY    76  68  78 S5        29.70S
GAYLORD        CLOUDY    70  67  90 S10       29.78F
GRAYLING       CLOUDY    72  71  99 S9        29.79S FOG
HARBOR SPRINGS MOSUNNY   79  70  73 S6        29.71F
HOUGHTON LAKE  CLOUDY    69  67  93 S9        29.80S FOG
MANISTEE       CLOUDY    75  68  78 S12G20    29.71S
OSCODA         MOSUNNY   76  71  83 S9        29.80F
PELLSTON       MOSUNNY   75  68  78 SE7       29.72F
TRAVERSE CITY  PTSUNNY   79  68  69 VRB7      29.68F
$$
MIZ007>008-015-011600-
EASTERN UPPER MICHIGAN

CITY           SKY/WX    TMP DP  RH WIND       PRES   REMARKS
KINROSS        PTSUNNY   72  66  83 SE14      29.72F
MACKINAC ISLAN PTSUNNY   70  67  91 SE6       29.72F
NEWBERRY       CLOUDY    70  66  88 S14       29.68F
S. S. MARIE    CLOUDY    67  63  87 E6        29.74F
$$
MIZ004>006-011>014-085-011600-
CENTRAL UPPER MICHIGAN

CITY           SKY/WX    TMP DP  RH WIND       PRES   REMARKS
MANISTIQUE     CLOUDY    67  66  98 CALM      29.68S FOG
ESCANABA       CLOUDY    68  64  88 S10G17    29.66F
MENOMINEE      CLOUDY    70  66  88 SW5       29.67F
SAWYER-GWINN   RAIN      68  66  94 SW12G18   29.67R
$$
MIZ001>003-009>011-084-011600-
WESTERN UPPER MICHIGAN

CITY           SKY/WX    TMP DP  RH WIND       PRES   REMARKS
IRON MOUNTAIN  LGT RAIN  67  64  90 S8        29.66R FOG
HOUGHTON       LGT RAIN  64  61  90 W14G25    29.57R
COPPER HARBOR    N/A     67  63  87 SW6       29.55R
$$

ABBREVIATIONS USED IN REMARKS
   TC - TEMPERATURE IN CELSIUS
  WCI - WIND CHILL INDEX
   HX - HEAT INDEX
  VSB - VISIBILITY



USA.gov is the U.S. government's official web portal to all federal, state and local government web resources and services.